FW2834 Weather Reports


Display with metric or nautical units.
time (UTC)temp
F
wind
direction
speed
MPH
gust
MPH
rain 1hr
in
rain 24hr
in
rain mn
in
humidity
%
barometer
mb
20260502181532 56 16 2.0 4.0 0.00 0.00 0.00 32 1016.7
20260502181031 57 355 1.0 5.0 0.00 0.00 0.00 35 1016.7
20260502180531 57 313 1.0 5.0 0.00 0.00 0.00 35 1016.7
20260502164025 56 51 2.0 5.0 0.00 0.00 0.00 35 1017.2
20260502163519 56 328 1.0 3.0 0.00 0.00 0.00 39 1017.3
20260502163020 56 53 1.0 4.0 0.00 0.00 0.00 36 1017.5
20260502162519 56 314 1.0 4.0 0.00 0.00 0.00 39 1017.5
20260502162016 55 326 1.0 4.0 0.00 0.00 0.00 38 1017.5
20260502161516 55 44 2.0 4.0 0.00 0.00 0.00 39 1017.6
20260502161014 55 17 0.0 5.0 0.00 0.00 0.00 39 1017.5
20260502160513 55 346 0.0 4.0 0.00 0.00 0.00 38 1017.5
20260502152002 53 317 0.0 1.0 0.00 0.00 0.00 44 1017.8
20260502151502 52 327 0.0 3.0 0.00 0.00 0.00 43 1017.7
20260502151002 52 327 0.0 3.0 0.00 0.00 0.00 45 1017.7
20260502150559 52 315 0.0 0.0 0.00 0.00 0.00 47 1017.8
20260502130530 40 317 0.0 0.0 0.00 0.00 0.00 74 1017.5
20260502123529 38 319 0.0 0.0 0.00 0.00 0.00 74 1017.4
20260502123027 38 319 0.0 0.0 0.00 0.00 0.00 74 1017.5
20260502122527 38 319 0.0 0.0 0.00 0.00 0.00 74 1017.3
20260502122027 38 319 0.0 0.0 0.00 0.00 0.00 74 1017.4
20260502121528 38 319 0.0 0.0 0.00 0.00 0.00 74 1017.3
20260502121027 38 319 0.0 0.0 0.00 0.00 0.00 74 1017.4
20260502120527 38 319 0.0 0.0 0.00 0.00 0.00 74 1017.5
20260502115530 37 319 0.0 0.0 0.00 0.00 0.00 74 1017.4
20260502115027 37 319 0.0 0.0 0.00 0.00 0.00 74 1017.3
20260502114530 37 319 0.0 0.0 0.00 0.00 0.00 74 1017.1
20260502114024 37 319 0.0 0.0 0.00 0.00 0.00 74 1017.1
20260502113526 37 319 0.0 0.0 0.00 0.00 0.00 74 1017.0
20260502113022 37 319 0.0 0.0 0.00 0.00 0.00 73 1016.9
20260502112520 37 319 0.0 0.0 0.00 0.00 0.00 73 1016.9
20260502112020 37 319 0.0 0.0 0.00 0.00 0.00 73 1016.7
20260502111524 36 319 0.0 0.0 0.00 0.00 0.00 73 1016.5
20260502111018 36 319 0.0 0.0 0.00 0.00 0.00 73 1016.7
20260502110518 36 319 0.0 0.0 0.00 0.00 0.00 73 1016.8
20260502110018 36 319 0.0 0.0 0.00 0.00 0.00 72 1016.9
20260502105521 36 319 0.0 0.0 0.00 0.00 0.00 72 1016.9
20260502105018 35 319 0.0 0.0 0.00 0.00 0.00 72 1016.9
20260502104523 35 319 0.0 0.0 0.00 0.00 0.00 72 1016.9
20260502104016 35 319 0.0 0.0 0.00 0.00 0.00 72 1016.9
20260502103517 35 319 0.0 0.0 0.00 0.00 0.00 72 1016.9
20260502103017 35 319 0.0 0.0 0.00 0.00 0.00 72 1016.9
20260502102516 35 319 0.0 0.0 0.00 0.00 0.00 72 1016.9
20260502102016 35 319 0.0 0.0 0.00 0.00 0.00 72 1016.8
20260502101517 35 319 0.0 0.0 0.00 0.00 0.00 72 1016.7
20260502101015 35 319 0.0 0.0 0.00 0.00 0.00 72 1016.8
20260502100514 35 319 0.0 0.0 0.00 0.00 0.00 72 1016.8
20260502091511 36 319 0.0 0.0 0.00 0.00 0.00 72 1016.8
20260502091009 37 319 0.0 0.0 0.00 0.00 0.00 72 1016.8
20260502090508 37 319 0.0 0.0 0.00 0.00 0.00 72 1016.9
20260502071501 38 319 0.0 0.0 0.00 0.00 0.00 71 1016.5
20260502071102 38 319 0.0 0.0 0.00 0.00 0.00 71 1016.5
20260502070600 38 319 0.0 0.0 0.00 0.00 0.00 71 1016.5
20260502065558 39 319 0.0 0.0 0.00 0.00 0.00 71 1016.6
20260502065058 39 319 0.0 0.0 0.00 0.00 0.00 71 1016.7
20260502064601 39 319 0.0 0.0 0.00 0.00 0.00 71 1016.7
20260502064056 39 319 0.0 0.0 0.00 0.00 0.00 71 1016.8
20260502063557 39 319 0.0 0.0 0.00 0.00 0.00 71 1016.8
20260502063103 39 319 0.0 0.0 0.00 0.00 0.00 71 1016.8
20260502062555 39 319 0.0 0.0 0.00 0.00 0.00 71 1017.0
20260502062057 39 319 0.0 0.0 0.00 0.00 0.00 70 1017.0
20260502061555 39 319 0.0 0.0 0.00 0.00 0.00 70 1017.2
20260502060554 39 319 0.0 0.0 0.00 0.00 0.00 70 1017.2
20260502060108 39 319 0.0 0.0 0.00 0.00 0.00 70 1017.2
20260502055555 39 319 0.0 0.0 0.00 0.00 0.00 70 1017.3
20260502055052 39 319 0.0 0.0 0.00 0.00 0.00 70 1017.3
20260502054552 39 319 0.0 0.0 0.00 0.00 0.00 70 1017.3
20260502054052 39 319 0.0 0.0 0.00 0.00 0.00 70 1017.2
20260502053551 39 319 0.0 0.0 0.00 0.00 0.00 70 1017.1
20260502053100 39 319 0.0 0.0 0.00 0.00 0.00 70 1017.1
20260502052550 39 319 0.0 0.0 0.00 0.00 0.00 70 1017.0
20260502052051 39 319 0.0 0.0 0.00 0.00 0.00 69 1017.0
20260502051559 39 319 0.0 0.0 0.00 0.00 0.00 69 1017.0
20260502051048 40 319 0.0 0.0 0.00 0.00 0.00 69 1017.1
20260502050551 40 319 0.0 0.0 0.00 0.00 0.00 69 1017.0
20260502050054 40 319 0.0 0.0 0.00 0.00 0.00 69 1017.0
20260502045549 40 319 0.0 0.0 0.00 0.00 0.00 69 1017.1
20260502045047 40 319 0.0 0.0 0.00 0.00 0.00 69 1017.0
20260502044546 40 319 0.0 0.0 0.00 0.00 0.00 69 1017.1
20260502044044 40 319 0.0 0.0 0.00 0.00 0.00 69 1017.1
20260502043544 40 319 0.0 0.0 0.00 0.00 0.00 69 1017.1
20260502043044 40 319 0.0 0.0 0.00 0.00 0.00 69 1017.1
20260502042545 41 319 0.0 0.0 0.00 0.00 0.00 69 1017.1
20260502042042 41 319 0.0 0.0 0.00 0.00 0.00 69 1017.2
20260502041542 41 319 0.0 0.0 0.00 0.00 0.00 68 1017.1
20260502041040 41 319 0.0 0.0 0.00 0.00 0.00 69 1017.1
20260502040539 41 319 0.0 0.0 0.00 0.00 0.00 68 1017.1
20260502040039 41 319 0.0 0.0 0.00 0.00 0.00 68 1017.0
20260502035539 41 319 0.0 0.0 0.00 0.00 0.00 68 1017.1
20260502035039 42 319 0.0 0.0 0.00 0.00 0.00 68 1017.1
20260502034539 42 319 0.0 0.0 0.00 0.00 0.00 68 1017.1
20260502034037 42 319 0.0 0.0 0.00 0.00 0.00 68 1017.1
20260502033537 42 319 0.0 0.0 0.00 0.00 0.00 68 1017.3
20260502033039 42 319 0.0 0.0 0.00 0.00 0.00 68 1017.2
20260502032537 42 319 0.0 0.0 0.00 0.00 0.00 67 1017.2
20260502032037 43 319 0.0 0.0 0.00 0.00 0.00 67 1017.2
20260502031542 43 319 0.0 0.0 0.00 0.00 0.00 67 1017.2
20260502031036 43 319 0.0 0.0 0.00 0.00 0.00 67 1017.2
20260502030536 43 319 0.0 0.0 0.00 0.00 0.00 67 1017.2
20260502030036 43 319 0.0 0.0 0.00 0.00 0.00 67 1017.1
20260502025535 43 319 0.0 0.0 0.00 0.00 0.00 67 1017.1
20260502025036 44 319 0.0 0.0 0.00 0.00 0.00 67 1017.1
20260502024537 44 319 0.0 0.0 0.00 0.00 0.00 67 1017.0
20260502024034 44 319 0.0 0.0 0.00 0.00 0.00 66 1016.9
20260502023533 44 319 0.0 0.0 0.00 0.00 0.00 66 1016.8
20260502023033 44 319 0.0 0.0 0.00 0.00 0.00 66 1016.9
20260502022533 44 319 0.0 0.0 0.00 0.00 0.00 65 1016.9
20260502022032 44 319 0.0 0.0 0.00 0.00 0.00 65 1016.8
20260502021533 44 319 0.0 0.0 0.00 0.00 0.00 64 1016.7
20260502021032 44 319 0.0 0.0 0.00 0.00 0.00 64 1016.6
20260502020531 45 319 0.0 0.0 0.00 0.00 0.00 64 1016.5
20260502020030 45 319 0.0 0.0 0.00 0.00 0.00 64 1016.4
20260502015529 45 319 0.0 0.0 0.00 0.00 0.00 63 1016.4
20260502015030 45 319 0.0 0.0 0.00 0.00 0.00 62 1016.3
20260502014531 46 319 0.0 0.0 0.00 0.00 0.00 62 1016.1
20260502014026 46 319 0.0 0.0 0.00 0.00 0.00 61 1016.0
20260502013526 46 319 0.0 0.0 0.00 0.00 0.00 60 1016.0
20260502013026 46 319 0.0 0.0 0.00 0.00 0.00 60 1016.0
20260502012526 47 319 0.0 0.0 0.00 0.00 0.00 60 1015.8
20260502012026 47 319 0.0 0.0 0.00 0.00 0.00 60 1015.9
20260502011542 48 319 0.0 0.0 0.00 0.00 0.00 59 1015.8
20260502011024 48 319 0.0 0.0 0.00 0.00 0.00 59 1015.5
20260502010523 48 319 0.0 0.0 0.00 0.00 0.00 59 1015.7
20260502010024 48 319 0.0 0.0 0.00 0.00 0.00 58 1015.7
20260502005523 49 319 0.0 0.0 0.00 0.00 0.00 57 1015.5
20260502005022 49 319 0.0 0.0 0.00 0.00 0.00 56 1015.4
20260502004528 49 319 0.0 0.0 0.00 0.00 0.00 55 1015.2
20260502004020 50 319 0.0 0.0 0.00 0.00 0.00 54 1015.1
20260502003518 50 319 0.0 0.0 0.00 0.00 0.00 53 1014.8
20260502003024 50 319 0.0 0.0 0.00 0.00 0.00 53 1014.6
20260502002518 50 319 0.0 0.0 0.00 0.00 0.00 53 1014.6
20260502002021 51 319 0.0 0.0 0.00 0.00 0.00 53 1014.5
20260502001519 51 319 0.0 0.0 0.00 0.00 0.00 53 1014.3
20260502001020 51 319 0.0 0.0 0.00 0.00 0.00 54 1014.2
20260502000518 51 319 0.0 0.0 0.00 0.00 0.00 53 1014.3
20260502000018 51 319 0.0 0.0 0.00 0.00 0.00 53 1014.3
20260501235521 52 319 0.0 0.0 0.00 0.00 0.00 52 1014.5
20260501235018 52 319 0.0 0.0 0.00 0.00 0.00 51 1014.5
20260501234518 52 319 0.0 0.0 0.00 0.00 0.00 51 1014.9
20260501234016 52 319 0.0 0.0 0.00 0.00 0.00 51 1014.8
20260501233516 52 319 0.0 0.0 0.00 0.00 0.00 52 1014.7
20260501233016 52 319 0.0 1.0 0.00 0.00 0.00 51 1014.6
20260501232516 52 319 0.0 2.0 0.00 0.00 0.00 50 1014.5
20260501232018 52 319 0.0 3.0 0.00 0.00 0.00 49 1014.2
20260501231527 52 319 0.0 3.0 0.00 0.00 0.00 50 1014.2
20260501231015 52 319 1.0 3.0 0.00 0.00 0.00 48 1014.3
20260501230516 52 306 1.0 3.0 0.00 0.00 0.00 51 1014.3
20260501230015 52 307 0.0 3.0 0.00 0.00 0.00 52 1014.2
20260501225515 52 304 1.0 2.0 0.00 0.00 0.00 52 1014.3
20260501225018 52 304 0.0 3.0 0.00 0.00 0.00 52 1014.3
20260501224515 52 304 0.0 4.0 0.00 0.00 0.00 50 1014.2
20260501224013 52 304 1.0 4.0 0.00 0.00 0.00 49 1014.2
20260501223513 53 292 2.0 4.0 0.00 0.00 0.00 50 1014.3
20260501223013 53 323 0.0 3.0 0.00 0.00 0.00 49 1014.4
20260501222513 53 323 1.0 3.0 0.00 0.00 0.00 47 1014.4
20260501222013 53 318 0.0 5.0 0.00 0.00 0.00 50 1014.4
20260501221513 53 318 1.0 5.0 0.00 0.00 0.00 48 1014.4
20260501221012 53 315 1.0 4.0 0.00 0.00 0.00 49 1014.4
20260501220512 53 333 1.0 4.0 0.00 0.00 0.00 49 1014.5
20260501220012 53 320 0.0 5.0 0.00 0.00 0.00 48 1014.3
20260501215512 53 28 2.0 5.0 0.00 0.00 0.00 48 1014.3
20260501215013 54 328 2.0 5.0 0.00 0.00 0.00 49 1014.3
20260501214514 54 311 1.0 4.0 0.00 0.00 0.00 48 1014.3
20260501214013 54 311 1.0 5.0 0.00 0.00 0.00 47 1014.2
20260501213514 54 305 2.0 5.0 0.00 0.00 0.00 47 1014.1
20260501213018 54 333 1.0 7.0 0.00 0.00 0.00 47 1014.1
20260501212511 55 44 1.0 5.0 0.00 0.00 0.00 49 1014.2
20260501212010 55 325 2.0 5.0 0.00 0.00 0.00 50 1014.1
20260501211511 55 346 2.0 9.0 0.00 0.00 0.00 50 1014.1
20260501211009 55 115 2.0 9.0 0.00 0.00 0.00 49 1014.2
20260501210510 55 327 0.0 4.0 0.00 0.00 0.00 51 1013.9
20260501210010 55 328 1.0 4.0 0.00 0.00 0.00 50 1014.1
20260501205509 55 348 0.0 3.0 0.00 0.00 0.00 50 1014.0
20260501205011 55 344 1.0 3.0 0.00 0.00 0.00 49 1014.1
20260501204510 55 348 1.0 3.0 0.00 0.00 0.00 48 1014.1
20260501204009 56 348 1.0 3.0 0.00 0.00 0.00 47 1013.9
20260501203509 56 331 1.0 6.0 0.00 0.00 0.00 46 1014.0
20260501203010 57 323 2.0 6.0 0.00 0.00 0.00 45 1014.0
20260501202513 57 321 2.0 5.0 0.00 0.00 0.00 46 1013.8
20260501202008 57 266 2.0 6.0 0.00 0.00 0.00 47 1013.8
20260501201509 58 331 2.0 5.0 0.00 0.00 0.00 47 1013.8
20260501201009 58 292 1.0 6.0 0.00 0.00 0.00 47 1013.9
20260501200515 58 284 3.0 6.0 0.00 0.00 0.00 48 1013.7
20260501200008 58 311 1.0 7.0 0.00 0.00 0.00 49 1013.8
20260501195508 57 320 2.0 7.0 0.00 0.00 0.00 46 1013.8
20260501195008 57 325 1.0 8.0 0.00 0.00 0.00 47 1013.7
20260501194506 58 317 3.0 8.0 0.00 0.00 0.00 47 1013.8
20260501194007 57 320 2.0 7.0 0.00 0.00 0.00 50 1013.8
20260501193505 57 350 2.0 5.0 0.00 0.00 0.00 49 1013.8
20260501193017 58 321 2.0 10.0 0.00 0.00 0.00 44 1013.6
20260501192505 59 310 4.0 10.0 0.00 0.00 0.00 43 1013.7
20260501192007 59 355 4.0 10.0 0.00 0.00 0.00 45 1013.6
20260501191503 59 26 1.0 6.0 0.00 0.00 0.00 49 1013.6
20260501191002 59 340 2.0 5.0 0.00 0.00 0.00 47 1013.6
20260501190503 58 323 1.0 6.0 0.00 0.00 0.00 47 1013.5
20260501190002 58 306 3.0 9.0 0.00 0.00 0.00 46 1013.5
20260501185501 58 26 2.0 9.0 0.00 0.00 0.00 45 1013.6
20260501185003 58 333 3.0 8.0 0.00 0.00 0.00 48 1013.7
20260501184501 58 351 2.0 8.0 0.00 0.00 0.00 44 1013.7
20260501184100 59 348 2.0 8.0 0.00 0.00 0.00 45 1013.6
20260501183603 59 272 2.0 9.0 0.00 0.00 0.00 47 1013.5
20260501183102 59 326 3.0 9.0 0.00 0.00 0.00 47 1013.3
20260501182558 58 313 2.0 6.0 0.00 0.00 0.00 52 1013.3
20260501182055 58 336 2.0 6.0 0.00 0.00 0.00 51 1013.2